Year,Month,Day,Hour,Minute,Value (Times are PST for temperature in C)
2009,07,20,00,00,13.20
2009,07,20,00,01,13.20
2009,07,20,00,02,13.20
2009,07,20,00,03,13.20
2009,07,20,00,04,13.10
2009,07,20,00,05,13.10
2009,07,20,00,06,13.10
2009,07,20,00,07,13.10
2009,07,20,00,08,13.10
2009,07,20,00,09,13.10
2009,07,20,00,10,13.10
2009,07,20,00,11,13.00
2009,07,20,00,12,13.00
2009,07,20,00,13,13.00
2009,07,20,00,14,12.90
2009,07,20,00,15,12.90
2009,07,20,00,16,12.90
2009,07,20,00,17,12.80
2009,07,20,00,18,12.80
2009,07,20,00,19,12.80
2009,07,20,00,20,12.80
2009,07,20,00,21,12.70
2009,07,20,00,22,12.70
2009,07,20,00,23,12.70
2009,07,20,00,24,12.70
2009,07,20,00,25,12.60
2009,07,20,00,26,12.60
2009,07,20,00,27,12.60
2009,07,20,00,28,12.60
2009,07,20,00,29,12.50
2009,07,20,00,30,12.50
2009,07,20,00,31,12.50
2009,07,20,00,32,12.50
2009,07,20,00,33,12.50
2009,07,20,00,34,12.40
2009,07,20,00,35,12.40
2009,07,20,00,36,12.40
2009,07,20,00,37,12.40
2009,07,20,00,38,12.40
2009,07,20,00,39,12.50
2009,07,20,00,40,12.40
2009,07,20,00,41,12.40
2009,07,20,00,42,12.40
2009,07,20,00,43,12.40
2009,07,20,00,44,12.40
2009,07,20,00,45,12.40
2009,07,20,00,46,12.40
2009,07,20,00,47,12.40
2009,07,20,00,48,12.40
2009,07,20,00,49,12.40
2009,07,20,00,50,12.40
2009,07,20,00,51,12.40
2009,07,20,00,52,12.50
2009,07,20,00,53,12.50
2009,07,20,00,54,12.50
2009,07,20,00,55,12.50
2009,07,20,00,56,12.50
2009,07,20,00,57,12.50
2009,07,20,00,58,12.50
2009,07,20,00,59,12.60
2009,07,20,01,00,12.60
2009,07,20,01,01,12.60
2009,07,20,01,02,12.60
2009,07,20,01,03,12.60
2009,07,20,01,04,12.60
2009,07,20,01,05,12.60
2009,07,20,01,06,12.70
2009,07,20,01,07,12.70
2009,07,20,01,08,12.70
2009,07,20,01,09,12.70
2009,07,20,01,10,12.70
2009,07,20,01,11,12.70
2009,07,20,01,12,12.70
2009,07,20,01,13,12.70
2009,07,20,01,14,12.70
2009,07,20,01,15,12.70
2009,07,20,01,16,12.70
2009,07,20,01,17,12.70
2009,07,20,01,18,12.80
2009,07,20,01,19,12.80
2009,07,20,01,20,12.80
2009,07,20,01,21,12.80
2009,07,20,01,22,12.80
2009,07,20,01,23,12.80
2009,07,20,01,24,12.80
2009,07,20,01,25,12.80
2009,07,20,01,26,12.80
2009,07,20,01,27,12.80
2009,07,20,01,28,12.80
2009,07,20,01,29,12.80
2009,07,20,01,30,12.80
2009,07,20,01,31,12.80
2009,07,20,01,32,12.80
2009,07,20,01,33,12.80
2009,07,20,01,34,12.80
2009,07,20,01,35,12.80
2009,07,20,01,36,12.80
2009,07,20,01,37,12.80
2009,07,20,01,38,12.80
2009,07,20,01,39,12.80
2009,07,20,01,40,12.70
2009,07,20,01,41,12.70
2009,07,20,01,42,12.70
2009,07,20,01,43,12.70
2009,07,20,01,44,12.70
2009,07,20,01,45,12.60
2009,07,20,01,46,12.60
2009,07,20,01,47,12.60
2009,07,20,01,48,12.60
2009,07,20,01,49,12.50
2009,07,20,01,50,12.50
2009,07,20,01,51,12.50
2009,07,20,01,52,12.50
2009,07,20,01,53,12.50
2009,07,20,01,54,12.50
2009,07,20,01,55,12.40
2009,07,20,01,56,12.40
2009,07,20,01,57,12.40
2009,07,20,01,58,12.40
2009,07,20,01,59,12.30
2009,07,20,02,00,12.30
2009,07,20,02,01,12.30
2009,07,20,02,02,12.30
2009,07,20,02,03,12.30
2009,07,20,02,04,12.30
2009,07,20,02,05,12.30
2009,07,20,02,06,12.30
2009,07,20,02,07,12.30
2009,07,20,02,08,12.20
2009,07,20,02,09,12.20
2009,07,20,02,10,12.20
2009,07,20,02,11,12.20
2009,07,20,02,12,12.20
2009,07,20,02,13,12.20
2009,07,20,02,14,12.20
2009,07,20,02,15,12.20
2009,07,20,02,16,12.20
2009,07,20,02,17,12.20
2009,07,20,02,18,12.20
2009,07,20,02,19,12.20
2009,07,20,02,20,12.20
2009,07,20,02,21,12.20
2009,07,20,02,22,12.20
2009,07,20,02,23,12.30
2009,07,20,02,24,12.30
2009,07,20,02,25,12.30
2009,07,20,02,26,12.30
2009,07,20,02,27,12.30
2009,07,20,02,28,12.20
2009,07,20,02,29,12.20
2009,07,20,02,30,12.20
2009,07,20,02,31,12.20
2009,07,20,02,32,12.20
2009,07,20,02,33,12.10
2009,07,20,02,34,12.10
2009,07,20,02,35,12.10
2009,07,20,02,36,12.10
2009,07,20,02,37,12.10
2009,07,20,02,38,12.10
2009,07,20,02,39,12.10
2009,07,20,02,40,12.10
2009,07,20,02,41,12.10
2009,07,20,02,42,12.00
2009,07,20,02,43,12.00
2009,07,20,02,44,12.00
2009,07,20,02,45,12.00
2009,07,20,02,46,12.00
2009,07,20,02,47,12.00
2009,07,20,02,48,11.90
2009,07,20,02,49,11.90
2009,07,20,02,50,11.80
2009,07,20,02,51,11.80
2009,07,20,02,52,11.70
2009,07,20,02,53,11.70
2009,07,20,02,54,11.60
2009,07,20,02,55,11.60
2009,07,20,02,56,11.60
2009,07,20,02,57,11.60
2009,07,20,02,58,11.60
2009,07,20,02,59,11.60
2009,07,20,03,00,11.60
2009,07,20,03,01,11.60
2009,07,20,03,02,11.60
2009,07,20,03,03,11.60
2009,07,20,03,04,11.60
2009,07,20,03,05,11.60
2009,07,20,03,06,11.60
2009,07,20,03,07,11.60
2009,07,20,03,08,11.60
2009,07,20,03,09,11.60
2009,07,20,03,10,11.60
2009,07,20,03,11,11.60
2009,07,20,03,12,11.40
2009,07,20,03,13,11.40
2009,07,20,03,14,11.40
2009,07,20,03,15,11.40
2009,07,20,03,16,11.40
2009,07,20,03,17,11.40
2009,07,20,03,18,11.40
2009,07,20,03,19,11.40
2009,07,20,03,20,11.40
2009,07,20,03,21,11.50
2009,07,20,03,22,11.60
2009,07,20,03,23,11.60
2009,07,20,03,24,11.60
2009,07,20,03,25,11.60
2009,07,20,03,26,11.60
2009,07,20,03,27,11.60
2009,07,20,03,28,11.50
2009,07,20,03,29,11.40
2009,07,20,03,30,11.40
2009,07,20,03,31,11.40
2009,07,20,03,32,11.40
2009,07,20,03,33,11.40
2009,07,20,03,34,11.40
2009,07,20,03,35,11.40
2009,07,20,03,36,11.40
2009,07,20,03,37,11.30
2009,07,20,03,38,11.30
2009,07,20,03,39,11.30
2009,07,20,03,40,11.30
2009,07,20,03,41,11.30
2009,07,20,03,42,11.30
2009,07,20,03,43,11.30
2009,07,20,03,44,11.20
2009,07,20,03,45,11.20
2009,07,20,03,46,11.20
2009,07,20,03,47,11.20
2009,07,20,03,48,11.20
2009,07,20,03,49,11.20
2009,07,20,03,50,11.20
2009,07,20,03,51,11.20
2009,07,20,03,52,11.20
2009,07,20,03,53,11.20
2009,07,20,03,54,11.20
2009,07,20,03,55,11.20
2009,07,20,03,56,11.20
2009,07,20,03,57,11.20
2009,07,20,03,58,11.20
2009,07,20,03,59,11.30
2009,07,20,04,00,11.30
2009,07,20,04,01,11.30
2009,07,20,04,02,11.40
2009,07,20,04,03,11.40
2009,07,20,04,04,11.40
2009,07,20,04,05,11.30
2009,07,20,04,06,11.30
2009,07,20,04,07,11.30
2009,07,20,04,08,11.30
2009,07,20,04,09,11.30
2009,07,20,04,10,11.30
2009,07,20,04,11,11.30
2009,07,20,04,12,11.30
2009,07,20,04,13,11.40
2009,07,20,04,14,11.40
2009,07,20,04,15,11.40
2009,07,20,04,16,11.30
2009,07,20,04,17,11.30
2009,07,20,04,18,11.30
2009,07,20,04,19,11.30
2009,07,20,04,20,11.30
2009,07,20,04,21,11.20
2009,07,20,04,22,11.20
2009,07,20,04,23,11.20
2009,07,20,04,24,11.20
2009,07,20,04,25,11.20
2009,07,20,04,26,11.30
2009,07,20,04,27,11.30
2009,07,20,04,28,11.40
2009,07,20,04,29,11.40
2009,07,20,04,30,11.40
2009,07,20,04,31,11.40
2009,07,20,04,32,11.40
2009,07,20,04,33,11.40
2009,07,20,04,34,11.40
2009,07,20,04,35,11.40
2009,07,20,04,36,11.40
2009,07,20,04,37,11.40
2009,07,20,04,38,11.30
2009,07,20,04,39,11.30
2009,07,20,04,40,11.30
2009,07,20,04,41,11.20
2009,07,20,04,42,11.20
2009,07,20,04,43,11.20
2009,07,20,04,44,11.10
2009,07,20,04,45,11.10
2009,07,20,04,46,11.10
2009,07,20,04,47,11.10
2009,07,20,04,48,11.10
2009,07,20,04,49,11.10
2009,07,20,04,50,11.10
2009,07,20,04,51,11.10
2009,07,20,04,52,11.10
2009,07,20,04,53,11.10
2009,07,20,04,54,11.10
2009,07,20,04,55,11.00
2009,07,20,04,56,10.90
2009,07,20,04,57,10.90
2009,07,20,04,58,10.90
2009,07,20,04,59,10.90
2009,07,20,05,00,10.90
2009,07,20,05,01,10.90
2009,07,20,05,02,10.90
2009,07,20,05,03,10.90
2009,07,20,05,04,10.90
2009,07,20,05,05,10.90
2009,07,20,05,06,10.90
2009,07,20,05,07,10.90
2009,07,20,05,08,10.90
2009,07,20,05,09,10.80
2009,07,20,05,10,10.80
2009,07,20,05,11,10.80
2009,07,20,05,12,10.80
2009,07,20,05,13,10.80
2009,07,20,05,14,10.70
2009,07,20,05,15,10.70
2009,07,20,05,16,10.60
2009,07,20,05,17,10.60
2009,07,20,05,18,10.60
2009,07,20,05,19,10.60
2009,07,20,05,20,10.60
2009,07,20,05,21,10.70
2009,07,20,05,22,10.70
2009,07,20,05,23,10.70
2009,07,20,05,24,10.80
2009,07,20,05,25,10.80
2009,07,20,05,26,10.80
2009,07,20,05,27,10.90
2009,07,20,05,28,10.90
2009,07,20,05,29,10.90
2009,07,20,05,30,10.90
2009,07,20,05,31,10.80
2009,07,20,05,32,10.80
2009,07,20,05,33,10.80
2009,07,20,05,34,10.80
2009,07,20,05,35,10.80
2009,07,20,05,36,10.80
2009,07,20,05,37,10.80
2009,07,20,05,38,10.80
2009,07,20,05,39,10.80
2009,07,20,05,40,10.80
2009,07,20,05,41,10.80
2009,07,20,05,42,10.80
2009,07,20,05,43,10.90
2009,07,20,05,44,10.90
2009,07,20,05,45,10.90
2009,07,20,05,46,10.90
2009,07,20,05,47,10.90
2009,07,20,05,48,10.90
2009,07,20,05,49,10.90
2009,07,20,05,50,10.90
2009,07,20,05,51,10.90
2009,07,20,05,52,10.90
2009,07,20,05,53,10.90
2009,07,20,05,54,10.90
2009,07,20,05,55,10.90
2009,07,20,05,56,10.90
2009,07,20,05,57,10.90
2009,07,20,05,58,10.90
2009,07,20,05,59,10.90
2009,07,20,06,00,10.90
2009,07,20,06,01,10.90
2009,07,20,06,02,10.90
2009,07,20,06,03,10.90
2009,07,20,06,04,10.90
2009,07,20,06,05,10.90
2009,07,20,06,06,10.90
2009,07,20,06,07,11.10
2009,07,20,06,08,11.10
2009,07,20,06,09,11.10
2009,07,20,06,10,11.10
2009,07,20,06,11,11.10
2009,07,20,06,12,11.10
2009,07,20,06,13,11.10
2009,07,20,06,14,11.10
2009,07,20,06,15,11.10
2009,07,20,06,16,11.10
2009,07,20,06,17,11.10
2009,07,20,06,18,11.10
2009,07,20,06,19,11.10
2009,07,20,06,20,11.00
2009,07,20,06,21,10.90
2009,07,20,06,22,10.90
2009,07,20,06,23,10.90
2009,07,20,06,24,10.90
2009,07,20,06,25,10.80
2009,07,20,06,26,10.80
2009,07,20,06,27,10.80
2009,07,20,06,28,10.70
2009,07,20,06,29,10.70
2009,07,20,06,30,10.70
2009,07,20,06,31,10.70
2009,07,20,06,32,10.60
2009,07,20,06,33,10.60
2009,07,20,06,34,10.60
2009,07,20,06,35,10.60
2009,07,20,06,36,10.60
2009,07,20,06,37,10.50
2009,07,20,06,38,10.40
2009,07,20,06,39,10.60
2009,07,20,06,40,10.60
2009,07,20,06,41,10.60
2009,07,20,06,42,10.60
2009,07,20,06,43,10.60
2009,07,20,06,44,10.60
2009,07,20,06,45,10.60
2009,07,20,06,46,10.60
2009,07,20,06,47,10.70
2009,07,20,06,48,10.70
2009,07,20,06,49,10.70
2009,07,20,06,50,10.70
2009,07,20,06,51,10.60
2009,07,20,06,52,10.60
2009,07,20,06,53,10.60
2009,07,20,06,54,10.60
2009,07,20,06,55,10.60
2009,07,20,06,56,10.60
2009,07,20,06,57,10.70
2009,07,20,06,58,10.70
2009,07,20,06,59,10.80
2009,07,20,07,00,10.80
2009,07,20,07,01,10.80
2009,07,20,07,02,10.80
2009,07,20,07,03,10.80
2009,07,20,07,04,10.90
2009,07,20,07,05,10.90
2009,07,20,07,06,10.90
2009,07,20,07,07,10.90
2009,07,20,07,08,10.90
2009,07,20,07,09,10.90
2009,07,20,07,10,10.90
2009,07,20,07,11,10.90
2009,07,20,07,12,10.90
2009,07,20,07,13,10.90
2009,07,20,07,14,11.00
2009,07,20,07,15,11.10
2009,07,20,07,16,11.10
2009,07,20,07,17,11.10
2009,07,20,07,18,11.20
2009,07,20,07,19,11.20
2009,07,20,07,20,11.20
2009,07,20,07,21,11.30
2009,07,20,07,22,11.30
2009,07,20,07,23,11.30
2009,07,20,07,24,11.30
2009,07,20,07,25,11.30
2009,07,20,07,26,11.30
2009,07,20,07,27,11.40
2009,07,20,07,28,11.40
2009,07,20,07,29,11.40
2009,07,20,07,30,11.40
2009,07,20,07,31,11.40
2009,07,20,07,32,11.50
2009,07,20,07,33,11.60
2009,07,20,07,34,11.60
2009,07,20,07,35,11.60
2009,07,20,07,36,11.60
2009,07,20,07,37,11.70
2009,07,20,07,38,11.70
2009,07,20,07,39,11.80
2009,07,20,07,40,11.80
2009,07,20,07,41,11.80
2009,07,20,07,42,11.90
2009,07,20,07,43,12.00
2009,07,20,07,44,12.00
2009,07,20,07,45,12.00
2009,07,20,07,46,12.10
2009,07,20,07,47,12.10
2009,07,20,07,48,12.20
2009,07,20,07,49,12.20
2009,07,20,07,50,12.30
2009,07,20,07,51,12.30
2009,07,20,07,52,12.30
2009,07,20,07,53,12.40
2009,07,20,07,54,12.40
2009,07,20,07,55,12.50
2009,07,20,07,56,12.60
2009,07,20,07,57,12.60
2009,07,20,07,58,12.60
2009,07,20,07,59,12.70
2009,07,20,08,00,12.80
2009,07,20,08,01,12.80
2009,07,20,08,02,12.80
2009,07,20,08,03,12.80
2009,07,20,08,04,12.80
2009,07,20,08,05,12.90
2009,07,20,08,06,13.00
2009,07,20,08,07,13.00
2009,07,20,08,08,13.10
2009,07,20,08,09,13.10
2009,07,20,08,10,13.20
2009,07,20,08,11,13.30
2009,07,20,08,12,13.30
2009,07,20,08,13,13.40
2009,07,20,08,14,13.50
2009,07,20,08,15,13.50
2009,07,20,08,16,13.60
2009,07,20,08,17,13.70
2009,07,20,08,18,13.80
2009,07,20,08,19,13.80
2009,07,20,08,20,13.90
2009,07,20,08,21,13.90
2009,07,20,08,22,13.90
2009,07,20,08,23,14.00
2009,07,20,08,24,14.10
2009,07,20,08,25,14.20
2009,07,20,08,26,14.20
2009,07,20,08,27,14.30
2009,07,20,08,28,14.40
2009,07,20,08,29,14.50
2009,07,20,08,30,14.60
2009,07,20,08,31,14.80
2009,07,20,08,32,14.80
2009,07,20,08,33,14.80
2009,07,20,08,34,14.80
2009,07,20,08,35,14.70
2009,07,20,08,36,14.70
2009,07,20,08,37,14.70
2009,07,20,08,38,14.70
2009,07,20,08,39,14.70
2009,07,20,08,40,14.60
2009,07,20,08,41,14.60
2009,07,20,08,42,14.70
2009,07,20,08,43,14.70
2009,07,20,08,44,14.60
2009,07,20,08,45,14.60
2009,07,20,08,46,14.50
2009,07,20,08,47,14.50
2009,07,20,08,48,14.50
2009,07,20,08,49,14.50
2009,07,20,08,50,14.50
2009,07,20,08,51,14.60
2009,07,20,08,52,14.60
2009,07,20,08,53,14.70
2009,07,20,08,54,14.80
2009,07,20,08,55,14.80
2009,07,20,08,56,14.80
2009,07,20,08,57,14.90
2009,07,20,08,58,15.00
2009,07,20,08,59,15.10
2009,07,20,09,00,15.20
2009,07,20,09,01,15.30
2009,07,20,09,02,15.30
2009,07,20,09,03,15.30
2009,07,20,09,04,15.30
2009,07,20,09,05,15.40
2009,07,20,09,06,15.50
2009,07,20,09,07,15.50
2009,07,20,09,08,15.40
2009,07,20,09,09,15.40
2009,07,20,09,10,15.50
2009,07,20,09,11,15.60
2009,07,20,09,12,15.70
2009,07,20,09,13,15.70
2009,07,20,09,14,15.70
2009,07,20,09,15,15.60
2009,07,20,09,16,15.60
2009,07,20,09,17,15.50
2009,07,20,09,18,15.50
2009,07,20,09,19,15.60
2009,07,20,09,20,15.60
2009,07,20,09,21,15.60
2009,07,20,09,22,15.50
2009,07,20,09,23,15.40
2009,07,20,09,24,15.30
2009,07,20,09,25,15.30
2009,07,20,09,26,15.20
2009,07,20,09,27,15.20
2009,07,20,09,28,15.20
2009,07,20,09,29,15.10
2009,07,20,09,30,15.10
2009,07,20,09,31,15.10
2009,07,20,09,32,15.10
2009,07,20,09,33,15.10
2009,07,20,09,34,15.00
2009,07,20,09,35,15.00
2009,07,20,09,36,15.00
2009,07,20,09,37,15.00
2009,07,20,09,38,15.00
2009,07,20,09,39,15.00
2009,07,20,09,40,15.00
2009,07,20,09,41,15.10
2009,07,20,09,42,15.10
2009,07,20,09,43,15.20
2009,07,20,09,44,15.10
2009,07,20,09,45,15.10
2009,07,20,09,46,15.00
2009,07,20,09,47,15.10
2009,07,20,09,48,15.10
2009,07,20,09,49,15.10
2009,07,20,09,50,15.10
2009,07,20,09,51,15.20
2009,07,20,09,52,15.30
2009,07,20,09,53,15.40
2009,07,20,09,54,15.70
2009,07,20,09,55,15.90
2009,07,20,09,56,16.20
2009,07,20,09,57,16.70
2009,07,20,09,58,17.10
2009,07,20,09,59,17.60
2009,07,20,10,00,18.00
2009,07,20,10,01,18.10
2009,07,20,10,02,18.00
2009,07,20,10,03,18.00
2009,07,20,10,04,18.10
2009,07,20,10,05,18.50
2009,07,20,10,06,18.80
2009,07,20,10,07,19.00
2009,07,20,10,08,19.30
2009,07,20,10,09,19.60
2009,07,20,10,10,19.80
2009,07,20,10,11,20.00
2009,07,20,10,12,20.20
2009,07,20,10,13,20.30
2009,07,20,10,14,20.30
2009,07,20,10,15,20.30
2009,07,20,10,16,20.00
2009,07,20,10,17,19.80
2009,07,20,10,18,19.80
2009,07,20,10,19,19.90
2009,07,20,10,20,20.10
2009,07,20,10,21,20.30
2009,07,20,10,22,20.60
2009,07,20,10,23,20.80
2009,07,20,10,24,20.90
2009,07,20,10,25,21.00
2009,07,20,10,26,21.10
2009,07,20,10,27,21.30
2009,07,20,10,28,21.30
2009,07,20,10,29,21.30
2009,07,20,10,30,21.30
2009,07,20,10,31,21.30
2009,07,20,10,32,21.30
2009,07,20,10,33,21.30
2009,07,20,10,34,21.30
2009,07,20,10,35,21.40
2009,07,20,10,36,21.50
2009,07,20,10,37,21.60
2009,07,20,10,38,21.80
2009,07,20,10,39,21.90
2009,07,20,10,40,21.90
2009,07,20,10,41,21.90
2009,07,20,10,42,21.80
2009,07,20,10,43,21.80
2009,07,20,10,44,21.80
2009,07,20,10,45,21.80
2009,07,20,10,46,21.90
2009,07,20,10,47,22.00
2009,07,20,10,48,22.00
2009,07,20,10,49,22.10
2009,07,20,10,50,21.80
2009,07,20,10,51,21.50
2009,07,20,10,52,20.60
2009,07,20,10,53,19.50
2009,07,20,10,54,18.80
2009,07,20,10,55,18.30
2009,07,20,10,56,18.00
2009,07,20,10,57,17.80
2009,07,20,10,58,17.60
2009,07,20,10,59,17.40
2009,07,20,11,00,17.40
2009,07,20,11,01,17.60
2009,07,20,11,02,17.80
2009,07,20,11,03,18.00
2009,07,20,11,04,18.20
2009,07,20,11,05,18.30
2009,07,20,11,06,18.40
2009,07,20,11,07,18.30
2009,07,20,11,08,18.30
2009,07,20,11,09,18.40
2009,07,20,11,10,18.50
2009,07,20,11,11,18.70
2009,07,20,11,12,18.90
2009,07,20,11,13,19.40
2009,07,20,11,14,19.80
2009,07,20,11,15,20.30
2009,07,20,11,16,20.70
2009,07,20,11,17,21.10
2009,07,20,11,18,21.30
2009,07,20,11,19,21.20
2009,07,20,11,20,21.10
2009,07,20,11,21,20.70
2009,07,20,11,22,20.30
2009,07,20,11,23,19.70
2009,07,20,11,24,19.10
2009,07,20,11,25,18.40
2009,07,20,11,26,18.00
2009,07,20,11,27,17.70
2009,07,20,11,28,17.40
2009,07,20,11,29,17.10
2009,07,20,11,30,16.90
2009,07,20,11,31,16.80
2009,07,20,11,32,16.70
2009,07,20,11,33,16.70
2009,07,20,11,34,16.70
2009,07,20,11,35,16.70
2009,07,20,11,36,16.80
2009,07,20,11,37,17.00
2009,07,20,11,38,17.30
2009,07,20,11,39,17.40
2009,07,20,11,40,17.60
2009,07,20,11,41,17.80
2009,07,20,11,42,17.90
2009,07,20,11,43,17.90
2009,07,20,11,44,17.90
2009,07,20,11,45,17.70
2009,07,20,11,46,17.50
2009,07,20,11,47,17.30
2009,07,20,11,48,17.10
2009,07,20,11,49,16.80
2009,07,20,11,50,16.80
2009,07,20,11,51,16.90
2009,07,20,11,52,17.00
2009,07,20,11,53,17.10
2009,07,20,11,54,17.40
2009,07,20,11,55,17.60
2009,07,20,11,56,17.90
2009,07,20,11,57,18.10
2009,07,20,11,58,18.20
2009,07,20,11,59,18.50
2009,07,20,12,00,18.60
2009,07,20,12,01,18.90
2009,07,20,12,02,19.20
2009,07,20,12,03,19.30
2009,07,20,12,04,19.60
2009,07,20,12,05,19.60
2009,07,20,12,06,19.30
2009,07,20,12,07,19.10
2009,07,20,12,08,18.80
2009,07,20,12,09,18.40
2009,07,20,12,10,18.00
2009,07,20,12,11,17.60
2009,07,20,12,12,17.40
2009,07,20,12,13,17.20
2009,07,20,12,14,17.00
2009,07,20,12,15,16.90
2009,07,20,12,16,16.70
2009,07,20,12,17,16.70
2009,07,20,12,18,16.70
2009,07,20,12,19,16.70
2009,07,20,12,20,16.60
2009,07,20,12,21,16.60
2009,07,20,12,22,16.70
2009,07,20,12,23,16.70
2009,07,20,12,24,16.70
2009,07,20,12,25,16.60
2009,07,20,12,26,16.60
2009,07,20,12,27,16.50
2009,07,20,12,28,16.60
2009,07,20,12,29,16.40
2009,07,20,12,30,16.30
2009,07,20,12,31,16.10
2009,07,20,12,32,16.10
2009,07,20,12,33,16.10
2009,07,20,12,34,16.10
2009,07,20,12,35,16.10
2009,07,20,12,36,16.10
2009,07,20,12,37,16.10
2009,07,20,12,38,16.20
2009,07,20,12,39,16.20
2009,07,20,12,40,16.30
2009,07,20,12,41,16.40
2009,07,20,12,42,16.40
2009,07,20,12,43,16.50
2009,07,20,12,44,16.60
2009,07,20,12,45,16.60
2009,07,20,12,46,16.60
2009,07,20,12,47,16.70
2009,07,20,12,48,16.70
2009,07,20,12,49,16.70
2009,07,20,12,50,16.80
2009,07,20,12,51,16.80
2009,07,20,12,52,16.90
2009,07,20,12,53,16.90
2009,07,20,12,54,16.90
2009,07,20,12,55,16.90
2009,07,20,12,56,16.90
2009,07,20,12,57,16.80
2009,07,20,12,58,16.70
2009,07,20,12,59,16.70
2009,07,20,13,00,16.70
2009,07,20,13,01,16.60
2009,07,20,13,02,16.50
2009,07,20,13,03,16.40
2009,07,20,13,04,16.40
2009,07,20,13,05,16.40
2009,07,20,13,06,16.50
2009,07,20,13,07,16.60
2009,07,20,13,08,16.70
2009,07,20,13,09,16.90
2009,07,20,13,10,17.10
2009,07,20,13,11,17.30
2009,07,20,13,12,17.30
2009,07,20,13,13,17.40
2009,07,20,13,14,17.50
2009,07,20,13,15,17.60
2009,07,20,13,16,17.60
2009,07,20,13,17,17.70
2009,07,20,13,18,17.70
2009,07,20,13,19,17.70
2009,07,20,13,20,17.70
2009,07,20,13,21,17.70
2009,07,20,13,22,17.70
2009,07,20,13,23,17.90
2009,07,20,13,24,18.10
2009,07,20,13,25,18.30
2009,07,20,13,26,18.50
2009,07,20,13,27,18.60
2009,07,20,13,28,18.50
2009,07,20,13,29,18.10
2009,07,20,13,30,17.60
2009,07,20,13,31,17.20
2009,07,20,13,32,16.90
2009,07,20,13,33,16.70
2009,07,20,13,34,16.60
2009,07,20,13,35,16.50
2009,07,20,13,36,16.40
2009,07,20,13,37,16.40
2009,07,20,13,38,16.40
2009,07,20,13,39,16.30
2009,07,20,13,40,16.30
2009,07,20,13,41,16.40
2009,07,20,13,42,16.50
2009,07,20,13,43,16.60
2009,07,20,13,44,16.70
2009,07,20,13,45,16.80
2009,07,20,13,46,16.80
2009,07,20,13,47,16.80
2009,07,20,13,48,16.90
2009,07,20,13,49,17.00
2009,07,20,13,50,17.00
2009,07,20,13,51,17.00
2009,07,20,13,52,17.00
2009,07,20,13,53,17.00
2009,07,20,13,54,17.10
2009,07,20,13,55,17.00
2009,07,20,13,56,17.00
2009,07,20,13,57,17.00
2009,07,20,13,58,16.90
2009,07,20,13,59,16.90
2009,07,20,14,00,16.80
2009,07,20,14,01,16.70
2009,07,20,14,02,16.60
2009,07,20,14,03,16.60
2009,07,20,14,04,16.60
2009,07,20,14,05,16.50
2009,07,20,14,06,16.60
2009,07,20,14,07,16.60
2009,07,20,14,08,16.70
2009,07,20,14,09,16.70
2009,07,20,14,10,16.70
2009,07,20,14,11,16.70
2009,07,20,14,12,16.70
2009,07,20,14,13,16.60
2009,07,20,14,14,16.60
2009,07,20,14,15,16.60
2009,07,20,14,16,16.60
2009,07,20,14,17,16.70
2009,07,20,14,18,16.70
2009,07,20,14,19,16.80
2009,07,20,14,20,16.80
2009,07,20,14,21,16.90
2009,07,20,14,22,16.80
2009,07,20,14,23,16.80
2009,07,20,14,24,16.70
2009,07,20,14,25,16.70
2009,07,20,14,26,16.70
2009,07,20,14,27,16.80
2009,07,20,14,28,16.80
2009,07,20,14,29,16.90
2009,07,20,14,30,16.80
2009,07,20,14,31,16.70
2009,07,20,14,32,16.70
2009,07,20,14,33,16.70
2009,07,20,14,34,16.70
2009,07,20,14,35,16.70
2009,07,20,14,36,16.80
2009,07,20,14,37,16.90
2009,07,20,14,38,16.90
2009,07,20,14,39,17.00
2009,07,20,14,40,17.10
2009,07,20,14,41,17.20
2009,07,20,14,42,17.30
2009,07,20,14,43,17.40
2009,07,20,14,44,17.40
2009,07,20,14,45,17.40
2009,07,20,14,46,17.40
2009,07,20,14,47,17.40
2009,07,20,14,48,17.30
2009,07,20,14,49,17.30
2009,07,20,14,50,17.10
2009,07,20,14,51,17.00
2009,07,20,14,52,17.00
2009,07,20,14,53,16.90
2009,07,20,14,54,16.90
2009,07,20,14,55,17.00
2009,07,20,14,56,17.00
2009,07,20,14,57,17.00
2009,07,20,14,58,17.10
2009,07,20,14,59,17.20
2009,07,20,15,00,17.30
2009,07,20,15,01,17.30
2009,07,20,15,02,17.40
2009,07,20,15,03,17.40
2009,07,20,15,04,17.40
2009,07,20,15,05,17.40
2009,07,20,15,06,17.40
2009,07,20,15,07,17.30
2009,07,20,15,08,17.20
2009,07,20,15,09,17.20
2009,07,20,15,10,17.20
2009,07,20,15,11,17.20
2009,07,20,15,12,17.10
2009,07,20,15,13,17.00
2009,07,20,15,14,17.00
2009,07,20,15,15,16.90
2009,07,20,15,16,16.80
2009,07,20,15,17,16.80
2009,07,20,15,18,16.80
2009,07,20,15,19,16.90
2009,07,20,15,20,16.90
2009,07,20,15,21,16.90
2009,07,20,15,22,16.90
2009,07,20,15,23,17.00
2009,07,20,15,24,17.00
2009,07,20,15,25,17.00
2009,07,20,15,26,17.00
2009,07,20,15,27,17.20
2009,07,20,15,28,17.20
2009,07,20,15,29,17.30
2009,07,20,15,30,17.40
2009,07,20,15,31,17.40
2009,07,20,15,32,17.50
2009,07,20,15,33,17.50
2009,07,20,15,34,17.60
2009,07,20,15,35,17.60
2009,07,20,15,36,17.60
2009,07,20,15,37,17.60
2009,07,20,15,38,17.50
2009,07,20,15,39,17.50
2009,07,20,15,40,17.60
2009,07,20,15,41,17.60
2009,07,20,15,42,17.60
2009,07,20,15,43,17.60
2009,07,20,15,44,17.50
2009,07,20,15,45,17.50
2009,07,20,15,46,17.40
2009,07,20,15,47,17.30
2009,07,20,15,48,17.30
2009,07,20,15,49,17.20
2009,07,20,15,50,17.20
2009,07,20,15,51,17.20
2009,07,20,15,52,17.20
2009,07,20,15,53,17.30
2009,07,20,15,54,17.30
2009,07,20,15,55,17.30
2009,07,20,15,56,17.40
2009,07,20,15,57,17.40
2009,07,20,15,58,17.50
2009,07,20,15,59,17.50
2009,07,20,16,00,17.50
2009,07,20,16,01,17.60
2009,07,20,16,02,17.60
2009,07,20,16,03,17.70
2009,07,20,16,04,17.70
2009,07,20,16,05,17.80
2009,07,20,16,06,17.80
2009,07,20,16,07,17.90
2009,07,20,16,08,17.90
2009,07,20,16,09,18.00
2009,07,20,16,10,18.10
2009,07,20,16,11,18.20
2009,07,20,16,12,18.20
2009,07,20,16,13,18.30
2009,07,20,16,14,18.40
2009,07,20,16,15,18.40
2009,07,20,16,16,18.40
2009,07,20,16,17,18.40
2009,07,20,16,18,18.40
2009,07,20,16,19,18.40
2009,07,20,16,20,18.40
2009,07,20,16,21,18.40
2009,07,20,16,22,18.40
2009,07,20,16,23,18.40
2009,07,20,16,24,18.50
2009,07,20,16,25,18.50
2009,07,20,16,26,18.60
2009,07,20,16,27,18.70
2009,07,20,16,28,18.80
2009,07,20,16,29,18.80
2009,07,20,16,30,18.90
2009,07,20,16,31,18.90
2009,07,20,16,32,19.00
2009,07,20,16,33,19.10
2009,07,20,16,34,19.10
2009,07,20,16,35,19.10
2009,07,20,16,36,19.10
2009,07,20,16,37,19.10
2009,07,20,16,38,19.10
2009,07,20,16,39,19.10
2009,07,20,16,40,19.10
2009,07,20,16,41,19.10
2009,07,20,16,42,19.10
2009,07,20,16,43,19.10
2009,07,20,16,44,19.10
2009,07,20,16,45,19.10
2009,07,20,16,46,18.90
2009,07,20,16,47,18.90
2009,07,20,16,48,18.90
2009,07,20,16,49,18.80
2009,07,20,16,50,18.70
2009,07,20,16,51,18.70
2009,07,20,16,52,18.70
2009,07,20,16,53,18.70
2009,07,20,16,54,18.70
2009,07,20,16,55,18.70
2009,07,20,16,56,18.60
2009,07,20,16,57,18.50
2009,07,20,16,58,18.50
2009,07,20,16,59,18.40
2009,07,20,17,00,18.30
2009,07,20,17,01,18.30
2009,07,20,17,02,18.30
2009,07,20,17,03,18.30
2009,07,20,17,04,18.30
2009,07,20,17,05,18.30
2009,07,20,17,06,18.30
2009,07,20,17,07,18.40
2009,07,20,17,08,18.40
2009,07,20,17,09,18.50
2009,07,20,17,10,18.50
2009,07,20,17,11,18.50
2009,07,20,17,12,18.60
2009,07,20,17,13,18.60
2009,07,20,17,14,18.70
2009,07,20,17,15,18.70
2009,07,20,17,16,18.90
2009,07,20,17,17,18.90
2009,07,20,17,18,19.10
2009,07,20,17,19,19.30